Location: Brunembert
(50.7122°N, 1.8935°E)
Time: 17:46:08
(UTC+00:00)

Envisat - Visible Passes

Search period start: 24 September 2021 00:00
Search period end: 04 October 2021 00:00
Orbit: 764 x 766 km, 98.2° (Epoch: 23 September)

Date Brightness Start Highest point End Pass type
(mag) Time Alt. Az. Time Alt. Az. Time Alt. Az.
24 Sep 4.5 04:35:00 10° NNE 04:39:47 39° E 04:44:32 10° SSE visible
25 Sep 5.7 03:58:50 10° NE 04:02:36 20° E 04:06:20 10° SE visible
26 Sep 3.6 05:00:10 10° NNE 05:05:14 64° ESE 05:10:17 10° S visible
27 Sep 4.9 04:23:37 10° NNE 04:28:12 32° E 04:32:44 10° SSE visible
28 Sep 5.9 03:47:44 10° NE 03:50:56 17° E 03:54:08 10° SE visible
29 Sep 4.0 04:48:42 10° NNE 04:53:41 52° E 04:58:38 10° S visible
30 Sep 5.3 04:12:18 10° NE 04:16:35 26° E 04:20:49 10° SSE visible
01 Oct 6.0 03:36:49 10° ENE 03:39:15 13° E 03:41:41 10° ESE visible
01 Oct 3.2 05:13:58 10° NNE 05:19:05 84° ESE 05:24:10 10° SSW visible
02 Oct 4.4 04:37:16 10° NNE 04:42:07 42° E 04:46:55 10° SSE visible
03 Oct 5.6 04:01:03 10° NE 04:04:56 22° E 04:08:49 10° SE visible
